Time,TemperatureF,DewpointF,PressureIn,WindDirection,WindDirectionDegrees,WindSpeedMPH,WindSpeedGustMPH,Humidity,HourlyPrecipIn,Conditions,Clouds,dailyrainin,SoftwareType,DateUTC
2013-05-12 00:01:00,40.3,34.3,29.97,SSW,211,3.0,9.0,79,0.00,,,0.00,WUHU216DAVISVP2,2013-05-12 04:01:00,
2013-05-12 00:06:00,40.2,34.2,29.97,WSW,240,6.0,9.0,79,0.00,,,0.00,WUHU216DAVISVP2,2013-05-12 04:06:00,
2013-05-12 00:11:00,40.0,34.0,29.97,SW,216,5.0,9.0,79,0.00,,,0.00,WUHU216DAVISVP2,2013-05-12 04:11:00,
2013-05-12 00:17:00,40.0,34.0,29.97,SSW,212,4.0,10.0,79,0.00,,,0.00,WUHU216DAVISVP2,2013-05-12 04:17:00,
2013-05-12 00:22:00,40.1,34.1,29.97,SW,223,8.0,12.0,79,0.00,,,0.00,WUHU216DAVISVP2,2013-05-12 04:22:00,
2013-05-12 00:27:00,40.0,34.0,29.97,SW,219,4.0,12.0,79,0.00,,,0.00,WUHU216DAVISVP2,2013-05-12 04:27:00,
2013-05-12 00:32:00,39.8,33.8,29.97,WSW,238,5.0,12.0,79,0.00,,,0.00,WUHU216DAVISVP2,2013-05-12 04:32:00,
2013-05-12 00:37:00,39.6,33.6,29.97,SW,236,4.0,12.0,79,0.00,,,0.00,WUHU216DAVISVP2,2013-05-12 04:37:00,
2013-05-12 00:42:00,39.5,33.6,29.97,SW,236,0.0,9.0,79,0.00,,,0.00,WUHU216DAVISVP2,2013-05-12 04:42:00,
2013-05-12 00:47:00,39.1,33.5,29.98,SW,236,0.0,6.0,80,0.00,,,0.00,WUHU216DAVISVP2,2013-05-12 04:47:00,
2013-05-12 00:52:00,38.9,33.6,29.98,SW,236,3.0,6.0,81,0.00,,,0.00,WUHU216DAVISVP2,2013-05-12 04:52:00,
2013-05-12 00:57:00,39.2,33.9,29.98,SW,227,4.0,6.0,81,0.00,,,0.00,WUHU216DAVISVP2,2013-05-12 04:57:00,
2013-05-12 01:02:00,39.4,33.8,29.98,SSW,213,2.0,6.0,80,0.00,,,0.00,WUHU216DAVISVP2,2013-05-12 05:02:00,
2013-05-12 01:07:00,39.4,33.8,29.98,SSW,213,3.0,6.0,80,0.00,,,0.00,WUHU216DAVISVP2,2013-05-12 05:07:00,
2013-05-12 01:12:00,39.2,33.6,29.98,SSW,213,2.0,6.0,80,0.00,,,0.00,WUHU216DAVISVP2,2013-05-12 05:12:00,
2013-05-12 01:17:00,39.0,33.7,29.98,SW,216,4.0,6.0,81,0.00,,,0.00,WUHU216DAVISVP2,2013-05-12 05:17:00,
2013-05-12 01:22:00,38.8,33.5,29.98,SW,216,4.0,6.0,81,0.00,,,0.00,WUHU216DAVISVP2,2013-05-12 05:22:00,
2013-05-12 01:27:00,38.9,33.9,29.98,SW,216,4.0,7.0,82,0.00,,,0.00,WUHU216DAVISVP2,2013-05-12 05:27:00,
2013-05-12 01:33:00,38.9,33.9,29.98,SW,216,4.0,7.0,82,0.00,,,0.00,WUHU216DAVISVP2,2013-05-12 05:33:00,
2013-05-12 01:38:00,39.0,34.0,29.98,SW,216,4.0,7.0,82,0.00,,,0.00,WUHU216DAVISVP2,2013-05-12 05:38:00,
2013-05-12 01:43:00,39.0,34.0,29.98,SW,216,1.0,7.0,82,0.00,,,0.00,WUHU216DAVISVP2,2013-05-12 05:43:00,
2013-05-12 01:48:00,38.7,33.7,29.98,SW,216,1.0,7.0,82,0.00,,,0.00,WUHU216DAVISVP2,2013-05-12 05:48:00,
2013-05-12 01:53:00,38.4,33.7,29.98,SW,216,1.0,7.0,83,0.00,,,0.00,WUHU216DAVISVP2,2013-05-12 05:53:00,
2013-05-12 01:58:00,38.3,33.6,29.98,SW,216,2.0,6.0,83,0.00,,,0.00,WUHU216DAVISVP2,2013-05-12 05:58:00,
2013-05-12 02:03:00,38.1,33.7,29.97,South,190,4.0,6.0,84,0.00,,,0.00,WUHU216DAVISVP2,2013-05-12 06:03:00,
2013-05-12 02:08:00,37.9,33.5,29.97,SSW,195,4.0,8.0,84,0.00,,,0.00,WUHU216DAVISVP2,2013-05-12 06:08:00,
2013-05-12 02:13:00,37.9,33.5,29.97,South,188,5.0,9.0,84,0.00,,,0.00,WUHU216DAVISVP2,2013-05-12 06:13:00,
2013-05-12 02:18:00,37.8,33.7,29.97,South,191,5.0,9.0,85,0.00,,,0.00,WUHU216DAVISVP2,2013-05-12 06:18:00,
2013-05-12 02:23:00,37.7,33.6,29.97,SSW,192,4.0,10.0,85,0.00,,,0.00,WUHU216DAVISVP2,2013-05-12 06:23:00,
2013-05-12 02:28:00,37.7,33.6,29.97,SSW,202,6.0,10.0,85,0.00,,,0.00,WUHU216DAVISVP2,2013-05-12 06:28:00,
2013-05-12 02:33:00,37.6,33.5,29.97,South,190,4.0,10.0,85,0.00,,,0.00,WUHU216DAVISVP2,2013-05-12 06:33:00,
2013-05-12 02:38:00,37.6,33.8,29.97,SSW,198,5.0,9.0,86,0.00,,,0.00,WUHU216DAVISVP2,2013-05-12 06:38:00,
2013-05-12 02:43:00,37.6,33.8,29.97,SSW,192,6.0,9.0,86,0.00,,,0.00,WUHU216DAVISVP2,2013-05-12 06:43:00,
2013-05-12 02:48:00,37.5,33.7,29.97,SSW,196,6.0,10.0,86,0.00,,,0.00,WUHU216DAVISVP2,2013-05-12 06:48:00,
2013-05-12 02:53:00,37.6,33.8,29.97,South,185,6.0,10.0,86,0.00,,,0.00,WUHU216DAVISVP2,2013-05-12 06:53:00,
2013-05-12 02:59:00,37.7,33.9,29.97,SSW,207,5.0,10.0,86,0.00,,,0.00,WUHU216DAVISVP2,2013-05-12 06:59:00,
2013-05-12 03:04:00,37.6,33.8,29.97,South,190,5.0,10.0,86,0.00,,,0.00,WUHU216DAVISVP2,2013-05-12 07:04:00,
2013-05-12 03:09:00,37.5,33.7,29.97,SSW,196,8.0,10.0,86,0.00,,,0.00,WUHU216DAVISVP2,2013-05-12 07:09:00,
2013-05-12 03:14:00,37.5,33.7,29.97,SSW,200,6.0,11.0,86,0.00,,,0.00,WUHU216DAVISVP2,2013-05-12 07:14:00,
2013-05-12 03:19:00,37.5,33.7,29.97,SSW,198,6.0,11.0,86,0.00,,,0.00,WUHU216DAVISVP2,2013-05-12 07:19:00,
2013-05-12 03:24:00,37.5,33.7,29.97,SSW,196,6.0,11.0,86,0.00,,,0.00,WUHU216DAVISVP2,2013-05-12 07:24:00,
2013-05-12 03:29:00,37.3,33.8,29.97,South,188,10.0,13.0,87,0.00,,,0.00,WUHU216DAVISVP2,2013-05-12 07:29:00,
2013-05-12 03:34:00,37.3,33.8,29.97,SSW,197,5.0,13.0,87,0.00,,,0.00,WUHU216DAVISVP2,2013-05-12 07:34:00,
2013-05-12 03:39:00,37.2,33.7,29.97,SW,232,5.0,13.0,87,0.00,,,0.00,WUHU216DAVISVP2,2013-05-12 07:39:00,
2013-05-12 03:44:00,37.2,33.7,29.97,SSW,196,6.0,13.0,87,0.00,,,0.00,WUHU216DAVISVP2,2013-05-12 07:44:00,
2013-05-12 03:49:00,37.1,33.6,29.97,SSW,212,9.0,12.0,87,0.00,,,0.00,WUHU216DAVISVP2,2013-05-12 07:49:00,
2013-05-12 03:54:00,37.1,33.6,29.97,SSW,200,7.0,12.0,87,0.00,,,0.00,WUHU216DAVISVP2,2013-05-12 07:54:00,
2013-05-12 03:59:00,37.1,33.6,29.97,SW,214,8.0,12.0,87,0.00,,,0.00,WUHU216DAVISVP2,2013-05-12 07:59:00,
2013-05-12 04:04:00,37.2,33.7,29.97,SSW,202,8.0,12.0,87,0.00,,,0.00,WUHU216DAVISVP2,2013-05-12 08:04:00,
2013-05-12 04:09:00,37.3,33.8,29.97,SW,223,7.0,12.0,87,0.00,,,0.00,WUHU216DAVISVP2,2013-05-12 08:09:00,
2013-05-12 04:14:00,37.3,33.8,29.97,SW,236,9.0,10.0,87,0.00,,,0.00,WUHU216DAVISVP2,2013-05-12 08:14:00,
2013-05-12 04:20:00,37.4,33.9,29.97,SSW,195,8.0,10.0,87,0.00,,,0.00,WUHU216DAVISVP2,2013-05-12 08:20:00,
2013-05-12 04:25:00,37.5,33.7,29.96,SSW,209,5.0,16.0,86,0.00,,,0.00,WUHU216DAVISVP2,2013-05-12 08:25:00,
2013-05-12 04:30:00,37.5,33.7,29.96,SSW,210,8.0,16.0,86,0.00,,,0.00,WUHU216DAVISVP2,2013-05-12 08:30:00,
2013-05-12 04:35:00,37.5,33.7,29.96,SSW,192,8.0,16.0,86,0.00,,,0.00,WUHU216DAVISVP2,2013-05-12 08:35:00,
2013-05-12 04:40:00,37.5,33.7,29.96,SW,223,7.0,16.0,86,0.00,,,0.00,WUHU216DAVISVP2,2013-05-12 08:40:00,
2013-05-12 04:45:00,37.4,33.6,29.96,SW,221,7.0,15.0,86,0.00,,,0.00,WUHU216DAVISVP2,2013-05-12 08:45:00,
2013-05-12 04:50:00,37.4,33.6,29.96,South,189,4.0,15.0,86,0.00,,,0.00,WUHU216DAVISVP2,2013-05-12 08:50:00,
2013-05-12 04:55:00,37.4,33.6,29.96,SW,219,6.0,15.0,86,0.00,,,0.00,WUHU216DAVISVP2,2013-05-12 08:55:00,
2013-05-12 05:00:00,37.5,33.7,29.96,SSW,192,6.0,15.0,86,0.00,,,0.00,WUHU216DAVISVP2,2013-05-12 09:00:00,
2013-05-12 05:05:00,37.4,33.6,29.96,SW,236,7.0,14.0,86,0.00,,,0.00,WUHU216DAVISVP2,2013-05-12 09:05:00,
2013-05-12 05:10:00,37.5,33.7,29.97,SSW,211,4.0,14.0,86,0.00,,,0.00,WUHU216DAVISVP2,2013-05-12 09:10:00,
2013-05-12 05:15:00,37.5,33.7,29.97,SSW,194,9.0,14.0,86,0.00,,,0.00,WUHU216DAVISVP2,2013-05-12 09:15:00,
2013-05-12 05:20:00,37.4,33.6,29.97,SW,217,7.0,14.0,86,0.00,,,0.00,WUHU216DAVISVP2,2013-05-12 09:20:00,
2013-05-12 05:25:00,37.3,33.5,29.96,SW,221,9.0,12.0,86,0.00,,,0.00,WUHU216DAVISVP2,2013-05-12 09:25:00,
2013-05-12 05:30:00,37.1,33.3,29.97,SW,227,6.0,12.0,86,0.00,,,0.00,WUHU216DAVISVP2,2013-05-12 09:30:00,
2013-05-12 05:35:00,37.3,33.2,29.97,SSW,200,7.0,13.0,85,0.00,,,0.00,WUHU216DAVISVP2,2013-05-12 09:35:00,
2013-05-12 05:40:00,37.2,33.1,29.97,SSW,197,5.0,13.0,85,0.00,,,0.00,WUHU216DAVISVP2,2013-05-12 09:40:00,
2013-05-12 05:46:00,37.1,33.3,29.97,SSW,198,7.0,13.0,86,0.00,,,0.00,WUHU216DAVISVP2,2013-05-12 09:46:00,
2013-05-12 05:51:00,37.1,33.0,29.97,SSW,205,8.0,13.0,85,0.00,,,0.00,WUHU216DAVISVP2,2013-05-12 09:51:00,
2013-05-12 05:56:00,37.1,33.0,29.97,SSW,206,11.0,11.0,85,0.00,,,0.00,WUHU216DAVISVP2,2013-05-12 09:56:00,
2013-05-12 06:01:00,37.2,33.1,29.97,SSW,212,7.0,11.0,85,0.00,,,0.00,WUHU216DAVISVP2,2013-05-12 10:01:00,
2013-05-12 06:06:00,37.1,33.0,29.97,SSW,213,10.0,11.0,85,0.00,,,0.00,WUHU216DAVISVP2,2013-05-12 10:06:00,
2013-05-12 06:11:00,37.0,32.9,29.98,SW,231,9.0,13.0,85,0.00,,,0.00,WUHU216DAVISVP2,2013-05-12 10:11:00,
2013-05-12 06:16:00,36.9,32.8,29.97,SW,222,7.0,13.0,85,0.00,,,0.00,WUHU216DAVISVP2,2013-05-12 10:16:00,
2013-05-12 06:21:00,36.9,32.5,29.98,SW,219,9.0,13.0,84,0.00,,,0.00,WUHU216DAVISVP2,2013-05-12 10:21:00,
2013-05-12 06:26:00,36.9,32.5,29.98,SW,227,8.0,15.0,84,0.00,,,0.00,WUHU216DAVISVP2,2013-05-12 10:26:00,
2013-05-12 06:31:00,36.9,32.5,29.98,SW,235,9.0,15.0,84,0.00,,,0.00,WUHU216DAVISVP2,2013-05-12 10:31:00,
2013-05-12 06:36:00,36.8,32.4,29.98,SW,214,6.0,15.0,84,0.00,,,0.00,WUHU216DAVISVP2,2013-05-12 10:36:00,
2013-05-12 06:41:00,36.7,32.3,29.98,SW,227,7.0,15.0,84,0.00,,,0.00,WUHU216DAVISVP2,2013-05-12 10:41:00,
2013-05-12 06:46:00,36.5,32.4,29.98,WSW,254,9.0,14.0,85,0.00,,,0.00,WUHU216DAVISVP2,2013-05-12 10:46:00,
2013-05-12 06:51:00,36.6,32.5,29.98,WSW,238,9.0,13.0,85,0.00,,,0.00,WUHU216DAVISVP2,2013-05-12 10:51:00,
2013-05-12 06:56:00,37.0,32.6,29.98,WSW,244,15.0,19.0,84,0.00,,,0.00,WUHU216DAVISVP2,2013-05-12 10:56:00,
2013-05-12 07:01:00,37.2,32.8,29.99,WSW,241,16.0,19.0,84,0.00,,,0.00,WUHU216DAVISVP2,2013-05-12 11:01:00,
2013-05-12 07:07:00,37.5,32.8,29.99,SW,220,7.0,19.0,83,0.00,,,0.00,WUHU216DAVISVP2,2013-05-12 11:07:00,
2013-05-12 07:12:00,37.5,32.8,29.99,SW,235,6.0,19.0,83,0.00,,,0.00,WUHU216DAVISVP2,2013-05-12 11:12:00,
2013-05-12 07:17:00,37.7,32.7,29.99,WSW,246,9.0,19.0,82,0.00,,,0.00,WUHU216DAVISVP2,2013-05-12 11:17:00,
2013-05-12 07:22:00,37.8,32.5,29.99,WSW,238,13.0,18.0,81,0.00,,,0.00,WUHU216DAVISVP2,2013-05-12 11:22:00,
2013-05-12 07:27:00,38.0,32.4,29.99,WSW,250,9.0,18.0,80,0.00,,,0.00,WUHU216DAVISVP2,2013-05-12 11:27:00,
2013-05-12 07:32:00,38.2,32.3,29.99,WSW,245,16.0,18.0,79,0.00,,,0.00,WUHU216DAVISVP2,2013-05-12 11:32:00,
2013-05-12 07:37:00,38.4,31.9,29.99,WSW,252,11.0,20.0,77,0.00,,,0.00,WUHU216DAVISVP2,2013-05-12 11:37:00,
2013-05-12 07:42:00,38.6,32.4,29.99,SW,229,12.0,20.0,78,0.00,,,0.00,WUHU216DAVISVP2,2013-05-12 11:42:00,
2013-05-12 07:47:00,38.8,32.2,29.99,SW,233,11.0,20.0,77,0.00,,,0.00,WUHU216DAVISVP2,2013-05-12 11:47:00,
2013-05-12 07:52:00,39.0,32.1,30.00,WSW,256,19.0,20.0,76,0.00,,,0.00,WUHU216DAVISVP2,2013-05-12 11:52:00,
2013-05-12 07:57:00,39.1,32.2,30.00,West,259,19.0,21.0,76,0.00,,,0.00,WUHU216DAVISVP2,2013-05-12 11:57:00,
2013-05-12 08:02:00,39.1,32.2,30.00,WSW,242,12.0,21.0,76,0.00,,,0.00,WUHU216DAVISVP2,2013-05-12 12:02:00,
2013-05-12 08:07:00,39.1,32.2,30.00,WSW,243,16.0,21.0,76,0.00,,,0.00,WUHU216DAVISVP2,2013-05-12 12:07:00,
2013-05-12 08:12:00,39.2,32.3,30.00,WSW,257,14.0,23.0,76,0.00,,,0.00,WUHU216DAVISVP2,2013-05-12 12:12:00,
2013-05-12 08:17:00,39.5,32.9,30.00,WSW,254,11.0,23.0,77,0.00,,,0.00,WUHU216DAVISVP2,2013-05-12 12:17:00,
2013-05-12 08:22:00,40.0,33.1,30.00,WSW,237,16.0,23.0,76,0.00,,,0.00,WUHU216DAVISVP2,2013-05-12 12:22:00,
2013-05-12 08:27:00,40.1,32.5,30.00,West,259,21.0,25.0,74,0.00,,,0.00,WUHU216DAVISVP2,2013-05-12 12:27:00,
2013-05-12 08:33:00,39.9,32.3,30.00,West,269,23.0,25.0,74,0.00,,,0.00,WUHU216DAVISVP2,2013-05-12 12:33:00,
2013-05-12 08:38:00,39.7,32.5,30.00,West,262,13.0,25.0,75,0.00,,,0.00,WUHU216DAVISVP2,2013-05-12 12:38:00,
2013-05-12 08:43:00,39.9,32.7,30.00,West,271,10.0,25.0,75,0.00,,,0.00,WUHU216DAVISVP2,2013-05-12 12:43:00,
2013-05-12 08:48:00,40.2,33.0,30.00,WSW,249,20.0,25.0,75,0.00,,,0.00,WUHU216DAVISVP2,2013-05-12 12:48:00,
2013-05-12 08:53:00,40.1,32.9,30.00,WSW,246,18.0,24.0,75,0.00,,,0.00,WUHU216DAVISVP2,2013-05-12 12:53:00,
2013-05-12 08:58:00,40.5,33.3,30.00,WSW,244,10.0,24.0,75,0.00,,,0.00,WUHU216DAVISVP2,2013-05-12 12:58:00,
2013-05-12 09:03:00,40.7,32.4,30.01,WSW,253,14.0,24.0,72,0.00,,,0.00,WUHU216DAVISVP2,2013-05-12 13:03:00,
2013-05-12 09:08:00,40.9,33.0,30.01,WSW,254,14.0,23.0,73,0.00,,,0.00,WUHU216DAVISVP2,2013-05-12 13:08:00,
2013-05-12 09:13:00,40.5,32.6,30.01,WSW,240,13.0,23.0,73,0.00,,,0.00,WUHU216DAVISVP2,2013-05-12 13:13:00,
2013-05-12 09:18:00,40.5,32.3,30.01,WSW,257,15.0,23.0,72,0.00,,,0.00,WUHU216DAVISVP2,2013-05-12 13:18:00,
2013-05-12 09:23:00,40.6,31.6,30.02,WSW,239,18.0,25.0,70,0.00,,,0.00,WUHU216DAVISVP2,2013-05-12 13:23:00,
2013-05-12 09:28:00,40.9,31.9,30.02,WSW,254,19.0,25.0,70,0.00,,,0.00,WUHU216DAVISVP2,2013-05-12 13:28:00,
2013-05-12 09:33:00,41.4,32.3,30.02,WSW,254,23.0,25.0,70,0.00,,,0.00,WUHU216DAVISVP2,2013-05-12 13:33:00,
2013-05-12 09:38:00,41.0,30.9,30.02,SW,230,18.0,30.0,67,0.00,,,0.00,WUHU216DAVISVP2,2013-05-12 13:38:00,
2013-05-12 09:43:00,41.3,31.5,30.02,WSW,249,23.0,30.0,68,0.00,,,0.00,WUHU216DAVISVP2,2013-05-12 13:43:00,
2013-05-12 09:48:00,41.2,30.8,30.02,WSW,250,23.0,30.0,66,0.00,,,0.00,WUHU216DAVISVP2,2013-05-12 13:48:00,
2013-05-12 09:53:00,41.4,29.8,30.02,West,261,18.0,30.0,63,0.00,,,0.00,WUHU216DAVISVP2,2013-05-12 13:53:00,
2013-05-12 09:59:00,42.2,30.6,30.02,West,260,21.0,29.0,63,0.00,,,0.00,WUHU216DAVISVP2,2013-05-12 13:59:00,
2013-05-12 10:04:00,42.4,30.0,30.03,WSW,252,27.0,29.0,61,0.00,,,0.00,WUHU216DAVISVP2,2013-05-12 14:04:00,
2013-05-12 10:09:00,42.0,30.0,30.03,WSW,238,26.0,29.0,62,0.00,,,0.00,WUHU216DAVISVP2,2013-05-12 14:09:00,
2013-05-12 10:14:00,42.5,30.1,30.03,WSW,241,20.0,30.0,61,0.00,,,0.00,WUHU216DAVISVP2,2013-05-12 14:14:00,
2013-05-12 10:19:00,42.7,29.8,30.03,West,259,13.0,31.0,60,0.00,,,0.00,WUHU216DAVISVP2,2013-05-12 14:19:00,
2013-05-12 10:24:00,43.1,28.9,30.03,West,275,19.0,32.0,57,0.00,,,0.00,WUHU216DAVISVP2,2013-05-12 14:24:00,
2013-05-12 10:29:00,43.3,30.3,30.03,NW,317,13.0,32.0,60,0.00,,,0.00,WUHU216DAVISVP2,2013-05-12 14:29:00,
2013-05-12 10:34:00,42.8,28.6,30.03,WSW,253,11.0,32.0,57,0.00,,,0.00,WUHU216DAVISVP2,2013-05-12 14:34:00,
2013-05-12 10:39:00,42.7,29.8,30.03,WSW,241,18.0,32.0,60,0.00,,,0.00,WUHU216DAVISVP2,2013-05-12 14:39:00,
2013-05-12 10:44:00,42.5,29.7,30.03,WSW,254,22.0,29.0,60,0.00,,,0.00,WUHU216DAVISVP2,2013-05-12 14:44:00,
2013-05-12 10:49:00,42.6,29.8,30.03,West,269,19.0,28.0,60,0.00,,,0.00,WUHU216DAVISVP2,2013-05-12 14:49:00,
2013-05-12 10:54:00,42.7,29.4,30.03,WSW,243,23.0,31.0,59,0.00,,,0.00,WUHU216DAVISVP2,2013-05-12 14:54:00,
2013-05-12 10:59:00,43.5,30.2,30.04,WSW,242,19.0,31.0,59,0.00,,,0.00,WUHU216DAVISVP2,2013-05-12 14:59:00,
2013-05-12 11:04:00,43.1,29.4,30.03,West,270,14.0,31.0,58,0.00,,,0.00,WUHU216DAVISVP2,2013-05-12 15:04:00,
2013-05-12 11:09:00,43.4,29.6,30.04,West,269,25.0,31.0,58,0.00,,,0.00,WUHU216DAVISVP2,2013-05-12 15:09:00,
2013-05-12 11:14:00,43.5,30.5,30.03,West,274,15.0,28.0,60,0.00,,,0.00,WUHU216DAVISVP2,2013-05-12 15:14:00,
2013-05-12 11:20:00,43.4,29.2,30.04,West,269,14.0,29.0,57,0.00,,,0.00,WUHU216DAVISVP2,2013-05-12 15:20:00,
2013-05-12 11:25:00,43.5,29.8,30.04,WNW,284,15.0,29.0,58,0.00,,,0.00,WUHU216DAVISVP2,2013-05-12 15:25:00,
2013-05-12 11:30:00,43.8,28.2,30.04,WSW,256,22.0,30.0,54,0.00,,,0.00,WUHU216DAVISVP2,2013-05-12 15:30:00,
2013-05-12 11:35:00,43.4,28.3,30.04,WSW,251,19.0,30.0,55,0.00,,,0.00,WUHU216DAVISVP2,2013-05-12 15:35:00,
2013-05-12 11:40:00,44.3,29.2,30.04,West,265,20.0,30.0,55,0.00,,,0.00,WUHU216DAVISVP2,2013-05-12 15:40:00,
2013-05-12 11:45:00,44.6,29.9,30.04,WNW,289,18.0,30.0,56,0.00,,,0.00,WUHU216DAVISVP2,2013-05-12 15:45:00,
2013-05-12 11:50:00,44.8,30.0,30.04,WSW,242,14.0,28.0,56,0.00,,,0.00,WUHU216DAVISVP2,2013-05-12 15:50:00,
2013-05-12 11:55:00,44.5,29.3,30.04,West,259,22.0,29.0,55,0.00,,,0.00,WUHU216DAVISVP2,2013-05-12 15:55:00,
2013-05-12 12:00:00,45.2,30.5,30.04,WSW,244,16.0,29.0,56,0.00,,,0.00,WUHU216DAVISVP2,2013-05-12 16:00:00,
2013-05-12 12:05:00,45.1,30.4,30.05,SW,234,18.0,29.0,56,0.00,,,0.00,WUHU216DAVISVP2,2013-05-12 16:05:00,
2013-05-12 12:10:00,45.1,31.3,30.05,West,270,15.0,29.0,58,0.00,,,0.00,WUHU216DAVISVP2,2013-05-12 16:10:00,
2013-05-12 12:15:00,45.6,30.4,30.05,West,276,13.0,27.0,55,0.00,,,0.00,WUHU216DAVISVP2,2013-05-12 16:15:00,
2013-05-12 12:20:00,45.5,30.3,30.05,WSW,257,14.0,27.0,55,0.00,,,0.00,WUHU216DAVISVP2,2013-05-12 16:20:00,
2013-05-12 12:25:00,45.7,29.5,30.05,West,273,21.0,26.0,53,0.00,,,0.00,WUHU216DAVISVP2,2013-05-12 16:25:00,
2013-05-12 12:30:00,46.0,29.8,30.04,WSW,247,13.0,26.0,53,0.00,,,0.00,WUHU216DAVISVP2,2013-05-12 16:30:00,
2013-05-12 12:35:00,45.6,29.5,30.05,SW,232,14.0,26.0,53,0.00,,,0.00,WUHU216DAVISVP2,2013-05-12 16:35:00,
2013-05-12 12:40:00,45.3,28.2,30.05,WSW,251,20.0,29.0,51,0.00,,,0.00,WUHU216DAVISVP2,2013-05-12 16:40:00,
2013-05-12 12:46:00,45.0,27.9,30.05,WNW,284,14.0,30.0,51,0.00,,,0.00,WUHU216DAVISVP2,2013-05-12 16:46:00,
2013-05-12 12:51:00,45.4,29.3,30.05,SW,234,22.0,30.0,53,0.00,,,0.00,WUHU216DAVISVP2,2013-05-12 16:51:00,
2013-05-12 12:56:00,45.8,29.6,30.05,West,275,20.0,30.0,53,0.00,,,0.00,WUHU216DAVISVP2,2013-05-12 16:56:00,
2013-05-12 13:01:00,46.3,30.1,30.05,WSW,246,13.0,30.0,53,0.00,,,0.00,WUHU216DAVISVP2,2013-05-12 17:01:00,
2013-05-12 13:06:00,47.2,30.0,30.05,SSW,211,13.0,26.0,51,0.00,,,0.00,WUHU216DAVISVP2,2013-05-12 17:06:00,
2013-05-12 13:11:00,45.7,29.1,30.05,SSW,198,14.0,26.0,52,0.00,,,0.00,WUHU216DAVISVP2,2013-05-12 17:11:00,
2013-05-12 13:16:00,46.2,30.0,30.05,WSW,241,19.0,26.0,53,0.00,,,0.00,WUHU216DAVISVP2,2013-05-12 17:16:00,
2013-05-12 13:21:00,46.1,30.4,30.05,WSW,250,16.0,26.0,54,0.00,,,0.00,WUHU216DAVISVP2,2013-05-12 17:21:00,
2013-05-12 13:26:00,45.6,29.5,30.05,WSW,238,16.0,26.0,53,0.00,,,0.00,WUHU216DAVISVP2,2013-05-12 17:26:00,
2013-05-12 13:31:00,47.1,32.3,30.06,SW,235,24.0,26.0,56,0.00,,,0.00,WUHU216DAVISVP2,2013-05-12 17:31:00,
2013-05-12 13:36:00,47.0,31.2,30.06,SW,221,21.0,25.0,54,0.00,,,0.00,WUHU216DAVISVP2,2013-05-12 17:36:00,
2013-05-12 13:41:00,46.0,30.8,30.06,SW,236,22.0,26.0,55,0.00,,,0.00,WUHU216DAVISVP2,2013-05-12 17:41:00,
2013-05-12 13:46:00,46.3,30.6,30.06,SW,221,18.0,26.0,54,0.00,,,0.00,WUHU216DAVISVP2,2013-05-12 17:46:00,
2013-05-12 13:51:00,46.8,30.6,30.06,SW,232,11.0,26.0,53,0.00,,,0.00,WUHU216DAVISVP2,2013-05-12 17:51:00,
2013-05-12 13:56:00,46.0,30.3,30.06,West,277,14.0,27.0,54,0.00,,,0.00,WUHU216DAVISVP2,2013-05-12 17:56:00,
2013-05-12 14:01:00,46.9,30.2,30.06,SW,221,11.0,27.0,52,0.00,,,0.00,WUHU216DAVISVP2,2013-05-12 18:01:00,
2013-05-12 14:07:00,46.3,30.6,30.06,WSW,246,9.0,28.0,54,0.00,,,0.00,WUHU216DAVISVP2,2013-05-12 18:07:00,
2013-05-12 14:12:00,46.6,30.4,30.06,WSW,248,23.0,28.0,53,0.00,,,0.00,WUHU216DAVISVP2,2013-05-12 18:12:00,
2013-05-12 14:17:00,46.5,31.2,30.06,SW,216,10.0,28.0,55,0.00,,,0.00,WUHU216DAVISVP2,2013-05-12 18:17:00,
2013-05-12 14:22:00,45.9,29.7,30.06,South,190,19.0,28.0,53,0.00,,,0.00,WUHU216DAVISVP2,2013-05-12 18:22:00,
2013-05-12 14:27:00,46.6,30.4,30.06,SW,232,15.0,28.0,53,0.00,,,0.00,WUHU216DAVISVP2,2013-05-12 18:27:00,
2013-05-12 14:32:00,46.3,30.1,30.06,West,264,14.0,28.0,53,0.00,,,0.00,WUHU216DAVISVP2,2013-05-12 18:32:00,
2013-05-12 14:37:00,47.2,31.9,30.06,SSW,198,18.0,28.0,55,0.00,,,0.00,WUHU216DAVISVP2,2013-05-12 18:37:00,
2013-05-12 14:42:00,47.3,30.6,30.06,WSW,250,18.0,28.0,52,0.00,,,0.00,WUHU216DAVISVP2,2013-05-12 18:42:00,
2013-05-12 14:47:00,47.4,30.6,30.06,WSW,238,16.0,28.0,52,0.00,,,0.00,WUHU216DAVISVP2,2013-05-12 18:47:00,
2013-05-12 14:52:00,46.7,30.5,30.06,SW,226,12.0,28.0,53,0.00,,,0.00,WUHU216DAVISVP2,2013-05-12 18:52:00,
2013-05-12 14:57:00,47.7,30.9,30.07,West,262,18.0,27.0,52,0.00,,,0.00,WUHU216DAVISVP2,2013-05-12 18:57:00,
2013-05-12 15:02:00,46.7,30.5,30.07,WSW,240,10.0,27.0,53,0.00,,,0.00,WUHU216DAVISVP2,2013-05-12 19:02:00,
2013-05-12 15:07:00,46.9,30.6,30.07,South,182,11.0,27.0,53,0.00,,,0.00,WUHU216DAVISVP2,2013-05-12 19:07:00,
2013-05-12 15:12:00,46.6,30.8,30.07,SW,229,11.0,27.0,54,0.00,,,0.00,WUHU216DAVISVP2,2013-05-12 19:12:00,
2013-05-12 15:17:00,47.2,30.9,30.07,WSW,237,18.0,25.0,53,0.00,,,0.00,WUHU216DAVISVP2,2013-05-12 19:17:00,
2013-05-12 15:22:00,47.0,30.3,30.07,SSW,205,13.0,23.0,52,0.00,,,0.00,WUHU216DAVISVP2,2013-05-12 19:22:00,
2013-05-12 15:28:00,46.5,31.2,30.07,West,259,13.0,25.0,55,0.00,,,0.00,WUHU216DAVISVP2,2013-05-12 19:28:00,
2013-05-12 15:33:00,46.3,30.1,30.07,WSW,244,20.0,27.0,53,0.00,,,0.00,WUHU216DAVISVP2,2013-05-12 19:33:00,
2013-05-12 15:38:00,46.6,29.9,30.08,WSW,246,19.0,28.0,52,0.00,,,0.00,WUHU216DAVISVP2,2013-05-12 19:38:00,
2013-05-12 15:43:00,47.0,30.3,30.07,WSW,250,16.0,28.0,52,0.00,,,0.00,WUHU216DAVISVP2,2013-05-12 19:43:00,
2013-05-12 15:48:00,46.7,30.5,30.08,SW,227,21.0,28.0,53,0.00,,,0.00,WUHU216DAVISVP2,2013-05-12 19:48:00,
2013-05-12 15:53:00,46.5,30.3,30.08,WSW,252,20.0,28.0,53,0.00,,,0.00,WUHU216DAVISVP2,2013-05-12 19:53:00,
2013-05-12 15:58:00,47.4,31.1,30.07,SW,234,15.0,27.0,53,0.00,,,0.00,WUHU216DAVISVP2,2013-05-12 19:58:00,
2013-05-12 16:03:00,46.8,29.6,30.08,SW,225,14.0,29.0,51,0.00,,,0.00,WUHU216DAVISVP2,2013-05-12 20:03:00,
2013-05-12 16:08:00,46.7,30.0,30.08,West,259,15.0,29.0,52,0.00,,,0.00,WUHU216DAVISVP2,2013-05-12 20:08:00,
2013-05-12 16:13:00,46.5,29.8,30.08,West,261,14.0,29.0,52,0.00,,,0.00,WUHU216DAVISVP2,2013-05-12 20:13:00,
2013-05-12 16:18:00,46.1,29.9,30.08,WSW,242,19.0,29.0,53,0.00,,,0.00,WUHU216DAVISVP2,2013-05-12 20:18:00,
2013-05-12 16:23:00,46.3,30.1,30.08,SSW,200,22.0,28.0,53,0.00,,,0.00,WUHU216DAVISVP2,2013-05-12 20:23:00,
2013-05-12 16:28:00,46.3,30.6,30.09,WSW,255,20.0,28.0,54,0.00,,,0.00,WUHU216DAVISVP2,2013-05-12 20:28:00,
2013-05-12 16:33:00,45.9,29.7,30.08,WSW,243,12.0,28.0,53,0.00,,,0.00,WUHU216DAVISVP2,2013-05-12 20:33:00,
2013-05-12 16:38:00,45.6,29.5,30.08,WSW,243,21.0,28.0,53,0.00,,,0.00,WUHU216DAVISVP2,2013-05-12 20:38:00,
2013-05-12 16:43:00,45.6,29.4,30.09,WSW,248,15.0,28.0,53,0.00,,,0.00,WUHU216DAVISVP2,2013-05-12 20:43:00,
2013-05-12 16:48:00,45.3,30.1,30.08,WSW,258,27.0,27.0,55,0.00,,,0.00,WUHU216DAVISVP2,2013-05-12 20:48:00,
2013-05-12 16:54:00,45.6,29.4,30.09,West,269,18.0,27.0,53,0.00,,,0.00,WUHU216DAVISVP2,2013-05-12 20:54:00,
2013-05-12 16:59:00,45.7,30.4,30.08,WSW,247,13.0,27.0,55,0.00,,,0.00,WUHU216DAVISVP2,2013-05-12 20:59:00,
2013-05-12 17:04:00,45.9,30.6,30.08,WSW,240,16.0,27.0,55,0.00,,,0.00,WUHU216DAVISVP2,2013-05-12 21:04:00,
2013-05-12 17:09:00,46.1,30.8,30.08,SW,236,16.0,26.0,55,0.00,,,0.00,WUHU216DAVISVP2,2013-05-12 21:09:00,
2013-05-12 17:14:00,46.0,28.4,30.08,WSW,244,18.0,27.0,50,0.00,,,0.00,WUHU216DAVISVP2,2013-05-12 21:14:00,
2013-05-12 17:19:00,45.7,28.6,30.09,WSW,241,19.0,27.0,51,0.00,,,0.00,WUHU216DAVISVP2,2013-05-12 21:19:00,
2013-05-12 17:24:00,45.8,27.7,30.09,WSW,242,21.0,27.0,49,0.00,,,0.00,WUHU216DAVISVP2,2013-05-12 21:24:00,
2013-05-12 17:29:00,46.1,28.9,30.08,SW,236,16.0,28.0,51,0.00,,,0.00,WUHU216DAVISVP2,2013-05-12 21:29:00,
2013-05-12 17:34:00,46.2,29.5,30.08,WSW,244,12.0,30.0,52,0.00,,,0.00,WUHU216DAVISVP2,2013-05-12 21:34:00,
2013-05-12 17:39:00,45.6,29.0,30.08,WSW,240,20.0,30.0,52,0.00,,,0.00,WUHU216DAVISVP2,2013-05-12 21:39:00,
2013-05-12 17:44:00,45.8,30.1,30.09,SW,236,19.0,30.0,54,0.00,,,0.00,WUHU216DAVISVP2,2013-05-12 21:44:00,
2013-05-12 17:49:00,46.4,29.7,30.09,West,263,21.0,30.0,52,0.00,,,0.00,WUHU216DAVISVP2,2013-05-12 21:49:00,
2013-05-12 17:54:00,45.3,28.7,30.09,WSW,243,15.0,26.0,52,0.00,,,0.00,WUHU216DAVISVP2,2013-05-12 21:54:00,
2013-05-12 17:59:00,45.8,29.6,30.09,WSW,258,15.0,28.0,53,0.00,,,0.00,WUHU216DAVISVP2,2013-05-12 21:59:00,
2013-05-12 18:04:00,45.7,29.1,30.10,WSW,252,25.0,28.0,52,0.00,,,0.00,WUHU216DAVISVP2,2013-05-12 22:04:00,
2013-05-12 18:09:00,45.7,29.1,30.09,SW,232,19.0,30.0,52,0.00,,,0.00,WUHU216DAVISVP2,2013-05-12 22:09:00,
2013-05-12 18:14:00,45.4,28.8,30.09,West,268,20.0,30.0,52,0.00,,,0.00,WUHU216DAVISVP2,2013-05-12 22:14:00,
2013-05-12 18:20:00,45.8,28.7,30.09,WSW,246,22.0,30.0,51,0.00,,,0.00,WUHU216DAVISVP2,2013-05-12 22:20:00,
2013-05-12 18:25:00,45.2,29.1,30.09,WSW,237,14.0,25.0,53,0.00,,,0.00,WUHU216DAVISVP2,2013-05-12 22:25:00,
2013-05-12 18:30:00,45.3,28.2,30.09,WSW,240,16.0,25.0,51,0.00,,,0.00,WUHU216DAVISVP2,2013-05-12 22:30:00,
2013-05-12 18:35:00,45.7,28.6,30.09,WSW,244,18.0,25.0,51,0.00,,,0.00,WUHU216DAVISVP2,2013-05-12 22:35:00,
2013-05-12 18:40:00,45.2,28.6,30.09,WSW,241,16.0,25.0,52,0.00,,,0.00,WUHU216DAVISVP2,2013-05-12 22:40:00,
2013-05-12 18:45:00,45.0,28.4,30.09,WSW,241,18.0,25.0,52,0.00,,,0.00,WUHU216DAVISVP2,2013-05-12 22:45:00,
2013-05-12 18:50:00,44.9,28.3,30.09,WSW,252,11.0,23.0,52,0.00,,,0.00,WUHU216DAVISVP2,2013-05-12 22:50:00,
2013-05-12 18:55:00,45.5,28.4,30.09,WSW,240,23.0,25.0,51,0.00,,,0.00,WUHU216DAVISVP2,2013-05-12 22:55:00,
2013-05-12 19:00:00,45.9,28.8,30.08,WSW,246,14.0,26.0,51,0.00,,,0.00,WUHU216DAVISVP2,2013-05-12 23:00:00,
2013-05-12 19:06:00,45.7,28.1,30.08,WSW,244,12.0,26.0,50,0.00,,,0.00,WUHU216DAVISVP2,2013-05-12 23:06:00,
2013-05-12 19:11:00,45.2,28.1,30.09,WSW,244,11.0,26.0,51,0.00,,,0.00,WUHU216DAVISVP2,2013-05-12 23:11:00,
2013-05-12 19:16:00,45.0,27.5,30.09,WSW,252,16.0,24.0,50,0.00,,,0.00,WUHU216DAVISVP2,2013-05-12 23:16:00,
2013-05-12 19:21:00,44.7,28.1,30.09,WSW,246,12.0,24.0,52,0.00,,,0.00,WUHU216DAVISVP2,2013-05-12 23:21:00,
2013-05-12 19:26:00,44.7,28.1,30.09,WSW,242,13.0,22.0,52,0.00,,,0.00,WUHU216DAVISVP2,2013-05-12 23:26:00,
2013-05-12 19:31:00,45.2,28.1,30.09,West,281,18.0,21.0,51,0.00,,,0.00,WUHU216DAVISVP2,2013-05-12 23:31:00,
2013-05-12 19:36:00,45.2,28.6,30.09,WSW,244,18.0,23.0,52,0.00,,,0.00,WUHU216DAVISVP2,2013-05-12 23:36:00,
2013-05-12 19:41:00,45.0,28.4,30.09,WSW,251,12.0,23.0,52,0.00,,,0.00,WUHU216DAVISVP2,2013-05-12 23:41:00,
2013-05-12 19:46:00,44.7,28.1,30.09,WSW,246,9.0,23.0,52,0.00,,,0.00,WUHU216DAVISVP2,2013-05-12 23:46:00,
2013-05-12 19:51:00,44.4,28.3,30.09,WSW,257,13.0,23.0,53,0.00,,,0.00,WUHU216DAVISVP2,2013-05-12 23:51:00,
2013-05-12 19:56:00,44.2,28.1,30.09,West,261,11.0,18.0,53,0.00,,,0.00,WUHU216DAVISVP2,2013-05-12 23:56:00,
2013-05-12 20:01:00,44.0,28.0,30.09,WSW,248,11.0,18.0,53,0.00,,,0.00,WUHU216DAVISVP2,2013-05-13 00:01:00,
2013-05-12 20:06:00,44.2,28.6,30.09,WSW,244,10.0,18.0,54,0.00,,,0.00,WUHU216DAVISVP2,2013-05-13 00:06:00,
2013-05-12 20:12:00,44.2,28.6,30.09,WSW,257,13.0,18.0,54,0.00,,,0.00,WUHU216DAVISVP2,2013-05-13 00:12:00,
2013-05-12 20:17:00,44.3,28.2,30.09,WSW,250,10.0,15.0,53,0.00,,,0.00,WUHU216DAVISVP2,2013-05-13 00:17:00,
2013-05-12 20:22:00,44.3,28.2,30.09,WSW,250,16.0,16.0,53,0.00,,,0.00,WUHU216DAVISVP2,2013-05-13 00:22:00,
2013-05-12 20:27:00,44.0,28.4,30.09,WSW,257,11.0,16.0,54,0.00,,,0.00,WUHU216DAVISVP2,2013-05-13 00:27:00,
2013-05-12 20:32:00,43.7,28.6,30.09,West,274,7.0,16.0,55,0.00,,,0.00,WUHU216DAVISVP2,2013-05-13 00:32:00,
2013-05-12 20:37:00,43.5,28.4,30.09,West,263,15.0,16.0,55,0.00,,,0.00,WUHU216DAVISVP2,2013-05-13 00:37:00,
2013-05-12 20:42:00,43.4,28.3,30.09,West,269,11.0,16.0,55,0.00,,,0.00,WUHU216DAVISVP2,2013-05-13 00:42:00,
2013-05-12 20:47:00,43.2,28.6,30.10,West,260,10.0,16.0,56,0.00,,,0.00,WUHU216DAVISVP2,2013-05-13 00:47:00,
2013-05-12 20:52:00,43.1,28.5,30.10,West,264,6.0,16.0,56,0.00,,,0.00,WUHU216DAVISVP2,2013-05-13 00:52:00,
2013-05-12 20:57:00,42.8,28.7,30.10,West,266,7.0,14.0,57,0.00,,,0.00,WUHU216DAVISVP2,2013-05-13 00:57:00,
2013-05-12 21:02:00,42.5,28.8,30.10,West,265,6.0,13.0,58,0.00,,,0.00,WUHU216DAVISVP2,2013-05-13 01:02:00,
2013-05-12 21:07:00,42.2,29.0,30.10,West,269,6.0,13.0,59,0.00,,,0.00,WUHU216DAVISVP2,2013-05-13 01:07:00,
2013-05-12 21:12:00,42.0,28.8,30.10,West,277,6.0,10.0,59,0.00,,,0.00,WUHU216DAVISVP2,2013-05-13 01:12:00,
2013-05-12 21:17:00,42.0,28.8,30.11,WNW,290,5.0,10.0,59,0.00,,,0.00,WUHU216DAVISVP2,2013-05-13 01:17:00,
2013-05-12 21:22:00,41.8,29.0,30.11,West,281,7.0,10.0,60,0.00,,,0.00,WUHU216DAVISVP2,2013-05-13 01:22:00,
2013-05-12 21:27:00,41.5,28.7,30.11,WNW,297,7.0,10.0,60,0.00,,,0.00,WUHU216DAVISVP2,2013-05-13 01:27:00,
2013-05-12 21:33:00,41.3,28.9,30.11,WNW,285,6.0,10.0,61,0.00,,,0.00,WUHU216DAVISVP2,2013-05-13 01:33:00,
2013-05-12 21:38:00,41.1,28.7,30.11,West,263,6.0,8.0,61,0.00,,,0.00,WUHU216DAVISVP2,2013-05-13 01:38:00,
2013-05-12 21:43:00,40.9,28.6,30.12,West,281,5.0,8.0,61,0.00,,,0.00,WUHU216DAVISVP2,2013-05-13 01:43:00,
2013-05-12 21:48:00,40.7,28.4,30.12,West,271,5.0,9.0,61,0.00,,,0.00,WUHU216DAVISVP2,2013-05-13 01:48:00,
2013-05-12 21:53:00,40.6,28.7,30.12,WNW,286,5.0,9.0,62,0.00,,,0.00,WUHU216DAVISVP2,2013-05-13 01:53:00,
2013-05-12 21:58:00,40.5,28.6,30.13,West,281,5.0,9.0,62,0.00,,,0.00,WUHU216DAVISVP2,2013-05-13 01:58:00,
2013-05-12 22:03:00,40.4,28.9,30.13,West,279,6.0,9.0,63,0.00,,,0.00,WUHU216DAVISVP2,2013-05-13 02:03:00,
2013-05-12 22:08:00,40.2,28.7,30.13,West,277,4.0,8.0,63,0.00,,,0.00,WUHU216DAVISVP2,2013-05-13 02:08:00,
2013-05-12 22:13:00,40.1,28.9,30.14,West,277,4.0,7.0,64,0.00,,,0.00,WUHU216DAVISVP2,2013-05-13 02:13:00,
2013-05-12 22:18:00,40.1,28.9,30.14,West,277,3.0,6.0,64,0.00,,,0.00,WUHU216DAVISVP2,2013-05-13 02:18:00,
2013-05-12 22:23:00,39.9,28.8,30.14,West,277,1.0,6.0,64,0.00,,,0.00,WUHU216DAVISVP2,2013-05-13 02:23:00,
2013-05-12 22:28:00,39.5,28.4,30.14,West,277,0.0,5.0,64,0.00,,,0.00,WUHU216DAVISVP2,2013-05-13 02:28:00,
2013-05-12 22:33:00,39.2,28.4,30.14,West,277,0.0,5.0,65,0.00,,,0.00,WUHU216DAVISVP2,2013-05-13 02:33:00,
2013-05-12 22:38:00,39.0,28.6,30.14,West,277,0.0,4.0,66,0.00,,,0.00,WUHU216DAVISVP2,2013-05-13 02:38:00,
2013-05-12 22:43:00,38.6,28.7,30.14,West,277,0.0,4.0,67,0.00,,,0.00,WUHU216DAVISVP2,2013-05-13 02:43:00,
2013-05-12 22:48:00,38.1,29.6,30.14,West,277,0.0,4.0,71,0.00,,,0.00,WUHU216DAVISVP2,2013-05-13 02:48:00,
2013-05-12 22:53:00,37.7,29.1,30.14,West,277,0.0,1.0,71,0.00,,,0.00,WUHU216DAVISVP2,2013-05-13 02:53:00,
2013-05-12 22:59:00,37.1,29.2,30.14,West,277,0.0,1.0,73,0.00,,,0.00,WUHU216DAVISVP2,2013-05-13 02:59:00,
2013-05-12 23:04:00,36.8,30.0,30.14,West,277,0.0,0.0,76,0.00,,,0.00,WUHU216DAVISVP2,2013-05-13 03:04:00,
2013-05-12 23:09:00,36.3,29.2,30.14,West,277,0.0,0.0,75,0.00,,,0.00,WUHU216DAVISVP2,2013-05-13 03:09:00,
2013-05-12 23:14:00,36.0,29.5,30.14,West,277,0.0,0.0,77,0.00,,,0.00,WUHU216DAVISVP2,2013-05-13 03:14:00,
2013-05-12 23:19:00,35.8,30.2,30.14,West,277,0.0,0.0,80,0.00,,,0.00,WUHU216DAVISVP2,2013-05-13 03:19:00,
2013-05-12 23:24:00,35.5,30.0,30.14,West,277,0.0,0.0,80,0.00,,,0.00,WUHU216DAVISVP2,2013-05-13 03:24:00,
2013-05-12 23:29:00,35.2,29.4,30.14,West,277,0.0,0.0,79,0.00,,,0.00,WUHU216DAVISVP2,2013-05-13 03:29:00,
2013-05-12 23:34:00,35.0,29.2,30.14,West,277,0.0,0.0,79,0.00,,,0.00,WUHU216DAVISVP2,2013-05-13 03:34:00,
2013-05-12 23:39:00,34.8,29.3,30.14,West,277,0.0,0.0,80,0.00,,,0.00,WUHU216DAVISVP2,2013-05-13 03:39:00,
2013-05-12 23:44:00,34.4,29.8,30.14,West,277,0.0,0.0,83,0.00,,,0.00,WUHU216DAVISVP2,2013-05-13 03:44:00,
2013-05-12 23:49:00,33.9,29.3,30.14,West,277,0.0,0.0,83,0.00,,,0.00,WUHU216DAVISVP2,2013-05-13 03:49:00,
2013-05-12 23:54:00,33.5,29.2,30.14,West,277,0.0,0.0,84,0.00,,,0.00,WUHU216DAVISVP2,2013-05-13 03:54:00,
2013-05-12 23:59:00,33.2,29.2,30.14,West,277,0.0,0.0,85,0.00,,,0.00,WUHU216DAVISVP2,2013-05-13 03:59:00,